Location: Bremen
(53.0796°N, 8.8241°E)
Time: 21:20:27
(UTC+01:00)

ISS - Pass Details

Date: 11 November 2017
Orbit: 402 x 407 km, 51.6° (Epoch: 24 November)

Event Time Altitude Azimuth Distance (km) Brightness Sun altitude
Exits shadow 06:42:30 12° 268° (W) 1,366 -1.8 -9.0°
Maximum altitude 06:45:13 33° 204° (SSW) 705 -2.7 -8.6°
Drops below altitude 10° 06:48:11 10° 139° (SE) 1,453 0.0 -8.2°
Sets 06:50:22 0° 129° (SE) 2,310 1.5 -7.9°
